Regional Weather Roundup
Issued by NWS

Home | Current Version | Previous Version | Text Only | Print | Product List | Glossary On
Versions: 1 2 3 4 5 6 7 8 9 10 11 12 13 14 15 16 17 18 19 20 21 22 23 24 25 26 27 28 29 30 31 32 33 34 35 36 37 38 39 40 41 42 43 44 45 46 47 48 49 50
000
ASUS45 KPSR 281310
RWRAZ

ARIZONA REGIONAL HOURLY WEATHER ROUNDUP
NATIONAL WEATHER SERVICE PHOENIX AZ
600 AM MST SAT FEB 28 2015

NOTE: FAIR INDICATES FEW OR NO CLOUDS BELOW 12,000 FEET WITH NO
SIGNIFICANT WEATHER AND/OR OBSTRUCTIONS TO VISIBILITY.

AZZ001>003-036-281400-
NORTHWEST ARIZONA

CITY           SKY/WX    TMP DP  RH WIND       PRES   REMARKS
BULLHEAD CITY  CLEAR     57  36  44 S3        29.66R
KINGMAN        CLEAR     48  33  56 S20G25    29.67R
$$

AZZ004>008-015-016-018-281400-
NORTH CENTRAL ARIZONA

CITY           SKY/WX    TMP DP  RH WIND       PRES   REMARKS
GRAND CANYON   CLOUDY    35  34  96 SW20      29.67S WCI  24
PRESCOTT       CLOUDY    44  33  65 S12G23    29.73R
FLAGSTAFF      LGT RAIN  36  32  85 SW24G32   29.69R WCI  24
PAYSON         CLOUDY    43  39  87 S10       29.78R
PAGE           FOG       33  31  92 N3        29.66F VSB 1/4
$$

AZZ009>014-017-281400-
NORTHEAST ARIZONA

CITY           SKY/WX    TMP DP  RH WIND       PRES   REMARKS
WINSLOW        CLOUDY    41  37  86 SE5       29.71F
SAINT JOHNS    CLOUDY    44  32  62 SW13      29.75R
WINDOW ROCK    SNOW      33  31  92 CALM      29.74R VSB 1/2
SHOW LOW       CLOUDY    37  30  75 S22G36    29.75S WCI  27
$$

AZZ023-281400-
GREATER PHOENIX AREA

CITY           SKY/WX    TMP DP  RH WIND       PRES   REMARKS
PHOENIX        CLOUDY    61  43  51 SE7       29.74R
BUCKEYE        CLOUDY    57  48  72 SW5       29.75R
LUKE AFB       CLOUDY    57  50  77 SW6       29.74R
DEER VALLEY    CLOUDY    58  45  62 SW6       29.74R
SCOTTSDALE     CLOUDY    59  42  53 CALM      29.76R
MESA-GATEWAY   MOCLDY    55  41  58 SE6       29.78R
CHANDLER       MOCLDY    57  41  54 S8        29.76
$$

AZZ027-028-281400-
SOUTHWEST MARICOPA COUNTY AND PINAL COUNTY

CITY           SKY/WX    TMP DP  RH WIND       PRES   REMARKS
CASA GRANDE    PTCLDY    54  37  54 S7        29.77R
GILA BEND      CLOUDY    59  46  61 SW5       29.75R
$$

AZZ503-504-507>509-281400-
SOUTHEAST ARIZONA

CITY           SKY/WX    TMP DP  RH WIND       PRES   REMARKS
TUCSON         PTCLDY    57  41  55 S5        29.82R
DAVIS-MONTHAN  PTCLDY    57  41  55 S9        29.80R
RYAN FIELD       N/A     59  43  55 SE6       29.81
NOGALES        CLEAR     50  40  68 S13       29.88R
SIERRA VISTA   MOCLDY    49  36  61 E9        29.86R
DOUGLAS        CLEAR     47  34  60 CALM      29.89R
SAFFORD        CLEAR     51  38  60 SE9       29.78R
$$

AZZ020-021-025-026-031-281400-
SOUTHWEST ARIZONA

CITY           SKY/WX    TMP DP  RH WIND       PRES   REMARKS
YUMA           MOCLDY    56  51  84 S3        29.74R
$$

CAZ031-033-041-043-047-048-061-281400-
SOUTHERN CALIFORNIA

CITY           SKY/WX    TMP DP  RH WIND       PRES   REMARKS
DOWNTOWN L.A.  CLOUDY    56  48  74 CALM      29.77R
L.A. AIRPORT   MOCLDY    56  44  64 W10       29.77R
SAN DIEGO      MOCLDY    59  48  67 W8        29.85R
BURBANK        CLOUDY    54  44  69 W6        29.76R
ONTARIO        MOCLDY    51  46  83 CALM      29.78R
RIVERSIDE      MOCLDY    52  46  80 CALM      29.78R
PALM SPRINGS   PTCLDY    59  39  47 NE3       29.67R
EL CENTRO NAS  CLEAR     61  42  49 SW21      29.73R
IMPERIAL       CLEAR     61  42  49 SW18      29.72R
BLYTHE         PTCLDY    58  42  55 SW9       29.69R
NEEDLES        CLOUDY    60  37  42 SW9       29.66R
$$

NVZ020-UTZ003-281400-
SOUTHERN NEVADA-UTAH

CITY           SKY/WX    TMP DP  RH WIND       PRES   REMARKS
LAS VEGAS      MOCLDY    53  36  52 SW14      29.57R
SALT LAKE CITY MOCLDY    29  24  82 CALM      29.65S
$$

NMZ009-TXZ055-281400-
NEW MEXICO-WEST TEXAS

CITY           SKY/WX    TMP DP  RH WIND       PRES   REMARKS
ALBUQUERQUE    LGT SNOW  20  18  92 N7        29.91S VSB 1   WCI  11
EL PASO        MOCLDY    29  22  75 E3        29.98S
$$


........................KEY........................
SKY/WX - SKY CONDITION/WEATHER
TMP    - TEMPERATURE IN FAHRENHEIT
DP     - DEW POINT IN FAHRENHEIT
RH     - RELATIVE HUMIDITY IN PERCENT
WIND   - DIRECTION AND SPEED IN MILES PER HOUR (MPH)
VRB    - VARIABLE WIND DIRECTION
PRES   - MEAN SEA LEVEL PRESSURE IN INCHES OF MERCURY
         F - FALLING PRESSURE   R - RISING PRESSURE
         S - STEADY PRESSURE
VSB    - VISIBILITY IN MILES
HX     - HEAT INDEX IN FAHRENHEIT
WCI    - WIND CHILL INDEX IN FAHRENHEIT
TC     - TEMPERATURE IN CELSIUS WHICH IS ALSO KNOWN AS
         TEMPERATURE IN CENTIGRADE
AFB    - AIR FORCE BASE
         LUKE AFB IS LUKE AIR FORCE BASE
         DAVIS-MONTHAN IS DAVIS-MONTHAN AIR FORCE BASE
NAS    - NAVAL AIR STATION
         EL CENTRO NAS IS EL CENTRO NAVAL AIR STATION
N/A    - NOT AVAILABLE


USA.gov is the U.S. government's official web portal to all federal, state and local government web resources and services.